Regional Weather Roundup
Issued by NWS Sioux Falls, SD

Home | Current Version | Previous Version | Graphics & Text | Print | Product List | Glossary Off
Versions: 1 2 3 4 5 6 7 8 9 10 11 12 13 14 15 16 17 18 19 20 21 22 23 24 25 26 27 28 29 30 31 32 33 34 35 36 37 38 39 40 41 42 43 44 45 46 47 48 49 50

000
ASUS43 KFSD 291910
RWRFSD

WEATHER ROUNDUP FOR SE SOUTH DAKOTA/SW MINNESOTA/NW IOWA
NATIONAL WEATHER SERVICE SIOUX FALLS SD
200 PM CDT SAT APR 29 2017

NOTE: "FAIR" INDICATES FEW OR NO CLOUDS BELOW 12,000 FEET WITH NO
SIGNIFICANT WEATHER AND OR OBSTRUCTIONS TO VISIBILITY.


SDZ038>040-050-052>070-292000-
SOUTHEAST SOUTH DAKOTA

CITY           SKY/WX    TMP DP  RH WIND       PRES   REMARKS
BROOKINGS      MOSUNNY   50  20  30 NE13      30.27R
CHAMBERLAIN    CLOUDY    54  20  25 N9        30.26R
HURON          MOSUNNY   55  22  27 N15G22    30.27S
MADISON        FAIR      50  18  27 E21G31    30.26R
MITCHELL       CLOUDY    57  20  23 NE18G26   30.26R
SIOUX FALLS    CLOUDY    51  28  41 E18G25    30.24R
WINNER         MOCLDY    54  18  24 NE15G23   30.25R
YANKTON        CLOUDY    50  27  40 NE18      30.21R
$$

MNZ071-072-080-081-089-090-097-098-292000-
SOUTHWEST MINNESOTA

CITY           SKY/WX    TMP DP  RH WIND       PRES   REMARKS
FAIRMONT       CLOUDY    48  27  44 E16G22    30.25R
JACKSON        CLOUDY    46  27  46 NE14      30.26R
LUVERNE        PTSUNNY   48  19  32 E20G25    30.26R
MARSHALL       PTSUNNY   52  24  33 NE16G23   30.28R
MONTEVIDEO     MOSUNNY   54  25  32 E12       30.29R
PIPESTONE      MOSUNNY   52  10  19 E14G24    30.26R
REDWOOD FALLS  MOSUNNY   52  21  29 NE8G18    30.27R
TRACY          CLOUDY    52  27  37 NE16G23   30.27R
WINDOM         CLOUDY    50  19  29 NE15G22   30.26R
WORTHINGTON    CLOUDY    48  21  34 NE21G26   30.26R
$$

IAZ001>003-012>014-020>022-031-032-NEZ013-014-SDZ071-292000-
NORTHWEST IOWA

CITY           SKY/WX    TMP DP  RH WIND       PRES   REMARKS
CHEROKEE       CLOUDY    47  32  56 E16       30.22R
DENISON        CLOUDY    45  34  65 NE22G31   30.14F
ESTHERVILLE    CLOUDY    48  29  47 NE18G25   30.25R
LE MARS        CLOUDY    48  32  53 NE15G22   30.22S
ORANGE CITY    CLOUDY    48  32  53 E13G20    30.22R
SHELDON        PTSUNNY   48  28  46 NE20G25   30.23R
SIOUX CITY     CLOUDY    49  31  49 E15G24    30.20R
SPENCER        CLOUDY    50  31  48 NE20G28   30.25R
STORM LAKE       N/A     46  30  53 E22       30.21R
$$

ABBREVIATIONS USED IN REMARKS
   TC - TEMPERATURE IN CELSIUS
  WCI - WIND CHILL INDEX
   HX - HEAT INDEX
  VSB - VISIBILITY





USA.gov is the U.S. government's official web portal to all federal, state and local government web resources and services.